MDT,Max TemperatureF,Mean TemperatureF,Min TemperatureF,Max Dew PointF,MeanDew PointF,Min DewpointF,Max Humidity, Mean Humidity, Min Humidity, Max Sea Level PressureIn, Mean Sea Level PressureIn, Min Sea Level PressureIn, Max VisibilityMiles, Mean VisibilityMiles, Min VisibilityMiles, Max Wind SpeedMPH, Mean Wind SpeedMPH, Max Gust SpeedMPH,PrecipitationIn, CloudCover, Events, WindDirDegrees
2012-10-1,62,52,41,32,28,27,65,44,26,30.49,30.43,30.39,10,10,10,9,3,,0.00,0,,128
2012-10-2,66,52,39,28,26,21,61,39,18,30.40,30.33,30.26,10,10,10,16,7,22,0.00,0,,164
2012-10-3,66,54,41,28,22,14,53,32,14,30.34,30.30,30.26,10,10,10,18,6,31,0.00,1,,165
2012-10-4,62,53,44,25,23,21,46,30,22,30.35,30.31,30.26,10,10,10,22,8,32,0.00,3,,191
2012-10-5,59,52,46,27,19,10,46,27,16,30.30,30.25,30.20,10,10,10,20,9,31,0.00,4,,248
2012-10-6,51,43,35,16,8,-8,39,23,9,30.23,30.20,30.15,10,10,10,16,4,22,0.00,1,,254
2012-10-7,51,40,30,9,5,-2,35,25,13,30.26,30.20,30.14,10,10,10,15,5,21,0.00,0,,183
2012-10-8,55,44,32,12,3,-6,32,19,12,30.27,30.24,30.19,10,10,10,12,6,20,0.00,0,,157
2012-10-9,59,47,35,21,17,12,52,32,16,30.32,30.26,30.22,10,10,10,13,6,23,0.00,0,,170
2012-10-10,64,50,37,27,23,19,56,35,19,30.35,30.30,30.22,10,10,10,13,5,20,0.00,1,,158
2012-10-11,62,52,41,37,25,18,66,38,18,30.35,30.28,30.24,10,10,10,20,5,30,0.00,2,Rain,136
2012-10-12,51,43,35,43,34,23,100,68,46,30.29,30.18,30.08,10,10,2,16,7,33,0.22,6,Rain-Snow-Thunderstorm,141
2012-10-13,39,36,32,36,30,21,100,85,56,30.39,30.24,30.14,10,9,0,9,2,,0.01,7,Snow,238
2012-10-14,55,44,33,34,31,23,93,68,29,30.49,30.44,30.39,10,10,10,14,3,18,0.00,2,,163
2012-10-15,59,47,35,32,22,10,81,43,17,30.43,30.34,30.26,10,10,10,16,5,21,0.00,0,,164
2012-10-16,60,48,35,30,23,18,65,39,20,30.29,30.15,30.04,10,10,10,15,5,21,0.00,1,,197
2012-10-17,51,42,33,32,13,-6,75,34,10,30.26,30.15,30.05,10,10,10,18,9,30,0.00,1,,262
2012-10-18,55,44,32,19,11,3,39,29,20,30.35,30.31,30.26,10,10,10,17,5,33,0.00,0,,232
2012-10-19,60,46,33,19,15,5,56,33,11,30.34,30.29,30.23,10,10,10,13,5,20,0.00,0,,154
2012-10-20,62,48,35,19,12,7,41,25,11,30.23,30.14,30.06,10,10,10,16,6,22,0.00,0,,143
2012-10-21,59,48,37,28,23,14,65,38,23,30.13,30.09,30.05,10,10,10,12,2,22,0.00,0,,167
2012-10-22,55,48,41,30,24,14,61,40,20,30.11,30.09,30.05,10,10,10,20,7,31,0.00,0,,130
2012-10-23,55,50,46,30,23,12,50,35,18,30.12,30.07,30.03,10,10,7,22,11,37,0.00,3,Rain,166
2012-10-24,51,40,28,32,20,5,100,44,18,30.06,29.99,29.86,10,9,1,31,8,47,0.00,3,Snow,178
2012-10-25,35,29,23,27,18,9,100,68,33,30.25,30.14,30.06,10,9,2,18,4,28,0.01,4,Snow,271
2012-10-26,39,26,14,21,5,-13,93,48,13,30.35,30.28,30.24,10,10,7,14,2,17,0.00,0,Snow,235
2012-10-27,44,35,26,14,8,0,47,33,21,30.31,30.24,30.21,10,10,10,14,5,18,0.00,1,,186
2012-10-28,51,40,30,27,21,12,65,48,34,30.37,30.31,30.28,10,10,10,15,5,18,0.00,0,,165
2012-10-29,55,44,33,27,22,19,70,50,25,30.40,30.37,30.34,10,10,10,15,6,23,0.00,0,,147
2012-10-30,55,44,32,21,18,12,64,41,19,30.39,30.36,30.31,10,10,10,15,6,21,0.00,0,,159
2012-10-31,59,46,32,19,15,9,60,35,14,30.37,30.33,30.29,10,10,10,17,6,21,0.00,0,,147